AZA6EG OERK-LICJ

Flight info

Callsign AZA6EG
Flight time N/A
Altitude 34000
Route IVONU Z710 SOKOP V166 GAS G662 NIMAR L550 NOVPA N697 SIMSA/N0463F360 N697 MENLI L677 CVO L617 NABSI M872 METRU UL81 LORNO DCT MASOT DCT ROSAS
Aircraft A320/M-SDE3FGHIRWY/LB1

Departure

Time 2026-05-01 12:54
Airport King Khalid International Airport (OERK)

Arrival

Time N/A
Airport Falcone–Borsellino Airport (LICJ)
Time Latitude Longitude Altitude Speed Heading
2026-05-01 12:37 24.96362 46.70206 2028 ft 0 kts 297°
2026-05-01 12:38 24.96362 46.70207 2028 ft 0 kts 297°
2026-05-01 12:44 24.96358 46.70214 2035 ft 2 kts 297°
2026-05-01 12:45 24.96342 46.70248 2038 ft 2 kts 297°
2026-05-01 12:45 24.96334 46.70265 2038 ft 2 kts 297°
2026-05-01 12:45 24.96322 46.70278 2037 ft 2 kts
2026-05-01 12:46 24.96311 46.70274 2034 ft 0 kts 60°
2026-05-01 12:48 24.96312 46.70278 2037 ft 2 kts 66°
2026-05-01 12:48 24.96321 46.70303 2033 ft 5 kts 67°
2026-05-01 12:48 24.96342 46.70352 2030 ft 9 kts 62°
2026-05-01 12:49 24.96378 46.70422 2030 ft 12 kts 60°
2026-05-01 12:49 24.96421 46.70505 2029 ft 14 kts 60°
2026-05-01 12:49 24.96481 46.70593 2032 ft 16 kts 21°
2026-05-01 12:49 24.96592 46.70551 2030 ft 19 kts 331°
2026-05-01 12:50 24.96717 46.70474 2032 ft 22 kts 329°
2026-05-01 12:50 24.96858 46.70385 2030 ft 24 kts 330°
2026-05-01 12:50 24.96961 46.70318 2026 ft 14 kts 329°
2026-05-01 12:50 24.97040 46.70267 2027 ft 12 kts 329°
2026-05-01 12:51 24.97108 46.70223 2028 ft 11 kts 330°
2026-05-01 12:51 24.97167 46.70186 2024 ft 9 kts 330°
2026-05-01 12:51 24.97306 46.70099 2026 ft 19 kts 330°
2026-05-01 12:52 24.97419 46.70026 2027 ft 18 kts 329°
2026-05-01 12:52 24.97586 46.70054 2028 ft 13 kts 60°
2026-05-01 12:52 24.97632 46.70143 2017 ft 13 kts 60°
2026-05-01 12:53 24.97571 46.70275 2022 ft 16 kts 151°
2026-05-01 12:53 24.97283 46.70457 2029 ft 81 kts 150°
2026-05-01 12:53 24.96619 46.70875 2028 ft 136 kts 150°
2026-05-01 12:54 24.95666 46.71483 2102 ft 173 kts 149°
2026-05-01 12:54 24.93525 46.72846 3277 ft 184 kts 148°
2026-05-01 12:54 24.92387 46.73534 3663 ft 189 kts 149°
2026-05-01 12:55 24.89931 46.74941 4262 ft 209 kts 150°
2026-05-01 12:55 24.88575 46.75681 4524 ft 226 kts 152°
2026-05-01 12:55 24.87103 46.76461 4826 ft 243 kts 153°
2026-05-01 12:56 24.85567 46.77247 5161 ft 243 kts 154°
2026-05-01 12:56 24.84018 46.78012 5439 ft 246 kts 154°
2026-05-01 12:56 24.82441 46.78722 5381 ft 244 kts 164°
2026-05-01 12:56 24.80704 46.78758 5387 ft 264 kts 189°
2026-05-01 12:57 24.78941 46.78070 5379 ft 272 kts 199°
2026-05-01 12:57 24.75419 46.76424 5707 ft 279 kts 201°
2026-05-01 12:57 24.73643 46.75576 6470 ft 278 kts 201°
2026-05-01 12:58 24.71871 46.74728 7196 ft 277 kts 202°
2026-05-01 12:58 24.70116 46.73891 7998 ft 274 kts 204°
2026-05-01 12:58 24.68356 46.73056 8671 ft 276 kts 205°
2026-05-01 12:59 24.64962 46.71168 10042 ft 272 kts 224°
2026-05-01 12:59 24.63801 46.69517 10419 ft 283 kts 245°
2026-05-01 12:59 24.63913 46.65027 10711 ft 330 kts 291°
2026-05-01 13:00 24.65978 46.60386 11718 ft 342 kts 292°
2026-05-01 13:00 24.67030 46.58027 12263 ft 345 kts 292°
2026-05-01 13:01 24.69148 46.53233 13411 ft 351 kts 292°
2026-05-01 13:01 24.70210 46.50811 13985 ft 353 kts 292°
2026-05-01 13:01 24.72354 46.45911 15004 ft 358 kts 292°
2026-05-01 13:02 24.73435 46.43436 15512 ft 360 kts 292°
2026-05-01 13:07 24.97507 45.88156 24870 ft 397 kts 292°
2026-05-01 13:07 24.98693 45.85404 25194 ft 398 kts 292°
2026-05-01 13:07 24.99882 45.82640 25504 ft 399 kts 291°
2026-05-01 13:08 25.01074 45.79872 25825 ft 400 kts 291°
2026-05-01 13:08 25.02274 45.77096 26127 ft 402 kts 291°
2026-05-01 13:08 25.03480 45.74313 26427 ft 403 kts 291°
2026-05-01 13:08 25.04687 45.71518 26729 ft 404 kts 291°
2026-05-01 13:09 25.05895 45.68711 27036 ft 405 kts 291°
2026-05-01 13:09 25.07102 45.65899 27333 ft 406 kts 291°
2026-05-01 13:09 25.08313 45.63078 27626 ft 407 kts 291°
2026-05-01 13:09 25.09513 45.60289 27898 ft 409 kts 291°
2026-05-01 13:10 25.10733 45.57451 28174 ft 410 kts 291°
2026-05-01 13:10 25.11957 45.54608 28426 ft 411 kts 291°
2026-05-01 13:10 25.13186 45.51747 28670 ft 413 kts 291°
2026-05-01 13:10 25.14414 45.48881 28911 ft 414 kts 291°
2026-05-01 13:11 25.15644 45.46005 29161 ft 415 kts 291°
2026-05-01 13:11 25.16880 45.43111 29386 ft 416 kts 291°
2026-05-01 13:11 25.18114 45.40218 29637 ft 417 kts 291°
2026-05-01 13:11 25.19340 45.37363 29856 ft 418 kts 292°
2026-05-01 13:12 25.20921 45.34582 30041 ft 424 kts 300°
2026-05-01 13:12 25.22578 45.31945 30266 ft 424 kts 299°
2026-05-01 13:12 25.24257 45.29279 30518 ft 422 kts 299°
2026-05-01 13:12 25.25930 45.26616 30787 ft 421 kts 299°
2026-05-01 13:13 25.27592 45.23968 31054 ft 419 kts 299°
2026-05-01 13:13 25.29254 45.21325 31309 ft 418 kts 298°
2026-05-01 13:13 25.30908 45.18696 31560 ft 416 kts 298°
2026-05-01 13:13 25.32558 45.16065 31851 ft 415 kts 298°
2026-05-01 13:14 25.34201 45.13448 32125 ft 413 kts 298°
2026-05-01 13:14 25.35835 45.10846 32389 ft 411 kts 298°
2026-05-01 13:14 25.37462 45.08249 32649 ft 410 kts 298°
2026-05-01 13:14 25.39081 45.05659 32907 ft 409 kts 297°
2026-05-01 13:15 25.40694 45.03080 33159 ft 407 kts 297°
2026-05-01 13:15 25.42303 45.00506 33421 ft 406 kts 297°
2026-05-01 13:15 25.43905 44.97942 33648 ft 405 kts 297°
2026-05-01 13:15 25.45503 44.95374 33847 ft 405 kts 297°
2026-05-01 13:16 25.47095 44.92817 33910 ft 402 kts 297°
2026-05-01 13:16 25.50256 44.87749 33911 ft 399 kts 297°
2026-05-01 13:17 25.56510 44.77691 33909 ft 397 kts 297°
2026-05-01 13:18 25.61209 44.70121 33903 ft 397 kts 297°
2026-05-01 13:18 25.64339 44.65083 33898 ft 397 kts 297°
2026-05-01 13:19 25.67468 44.60037 33909 ft 397 kts 297°
2026-05-01 13:20 25.72148 44.52470 33900 ft 396 kts 297°
2026-05-01 13:20 25.75266 44.47426 33894 ft 396 kts 297°
2026-05-01 13:21 25.79940 44.39857 33882 ft 396 kts 297°
2026-05-01 13:21 25.83032 44.34845 33887 ft 396 kts 297°
2026-05-01 13:22 25.86141 44.29796 33880 ft 396 kts 297°
2026-05-01 13:22 25.89247 44.24743 33878 ft 396 kts 297°
2026-05-01 13:23 25.92352 44.19679 33885 ft 396 kts 297°
2026-05-01 13:23 25.95457 44.14618 33875 ft 397 kts 297°
2026-05-01 13:24 25.98564 44.09550 33874 ft 397 kts 297°
2026-05-01 13:25 26.03227 44.01935 33884 ft 397 kts 297°
2026-05-01 13:25 26.06332 43.96851 33872 ft 397 kts 297°
2026-05-01 13:26 26.09419 43.91803 33866 ft 397 kts 297°
2026-05-01 13:26 26.12509 43.86738 33870 ft 397 kts 297°
2026-05-01 13:27 26.15644 43.81591 33872 ft 398 kts 297°
2026-05-01 13:27 26.20279 43.73974 33859 ft 398 kts 297°
2026-05-01 13:28 26.24934 43.66311 33855 ft 398 kts 297°
2026-05-01 13:29 26.31134 43.56077 33862 ft 398 kts 297°
2026-05-01 13:31 26.40435 43.40695 33890 ft 399 kts 297°
2026-05-01 13:32 26.48165 43.27874 33889 ft 399 kts 297°
2026-05-01 13:33 26.55384 43.15856 33891 ft 400 kts 297°
2026-05-01 13:34 26.61587 43.05508 33893 ft 400 kts 297°
2026-05-01 13:35 26.66203 42.97788 33896 ft 400 kts 297°
2026-05-01 13:36 26.70844 42.90024 33900 ft 400 kts 297°
2026-05-01 13:36 26.75490 42.82247 33896 ft 401 kts 297°
2026-05-01 13:37 26.78580 42.77056 33896 ft 401 kts 297°
2026-05-01 13:37 26.81670 42.71852 33902 ft 401 kts 297°
2026-05-01 13:38 26.84061 42.66340 33904 ft 391 kts 285°
2026-05-01 13:38 26.84990 42.63472 33827 ft 395 kts 285°
2026-05-01 13:38 26.85920 42.60564 33569 ft 397 kts 284°
2026-05-01 13:39 26.86847 42.57648 33312 ft 398 kts 284°
2026-05-01 13:39 26.87774 42.54722 33045 ft 399 kts 285°
2026-05-01 13:39 26.88706 42.51790 32790 ft 400 kts 285°
2026-05-01 13:39 26.89644 42.48848 32534 ft 401 kts 285°
2026-05-01 13:40 26.90583 42.45903 32275 ft 402 kts 285°
2026-05-01 13:40 26.91523 42.42954 32029 ft 403 kts 285°
2026-05-01 13:40 26.92463 42.39993 31799 ft 403 kts 285°
2026-05-01 13:40 26.93391 42.37067 31556 ft 404 kts 285°
2026-05-01 13:41 26.94329 42.34101 31319 ft 405 kts 285°
2026-05-01 13:41 26.95270 42.31123 31071 ft 405 kts 285°
2026-05-01 13:41 26.96209 42.28145 30830 ft 406 kts 285°
2026-05-01 13:41 26.97151 42.25158 30595 ft 407 kts 285°
2026-05-01 13:42 26.98098 42.22161 30380 ft 409 kts 285°
2026-05-01 13:42 26.99049 42.19148 30600 ft 410 kts 285°
2026-05-01 13:42 26.99999 42.16146 30873 ft 409 kts 285°
2026-05-01 13:42 27.00949 42.13148 31165 ft 407 kts 285°
2026-05-01 13:43 27.01895 42.10156 31437 ft 406 kts 285°
2026-05-01 13:43 27.02836 42.07179 31702 ft 405 kts 285°
2026-05-01 13:43 27.03775 42.04199 31963 ft 404 kts 285°
2026-05-01 13:43 27.04708 42.01231 32219 ft 404 kts 285°
2026-05-01 13:44 27.05640 41.98264 32491 ft 403 kts 285°
2026-05-01 13:44 27.06570 41.95300 32739 ft 402 kts 284°
2026-05-01 13:44 27.07495 41.92342 32982 ft 401 kts 284°
2026-05-01 13:44 27.08417 41.89386 33234 ft 401 kts 284°
2026-05-01 13:45 27.09336 41.86435 33481 ft 400 kts 284°
2026-05-01 13:45 27.10253 41.83492 33732 ft 399 kts 284°
2026-05-01 13:45 27.11170 41.80555 33973 ft 399 kts 284°
2026-05-01 13:45 27.12086 41.77622 34187 ft 398 kts 284°
2026-05-01 13:46 27.12998 41.74698 34435 ft 396 kts 284°
2026-05-01 13:46 27.13907 41.71786 34657 ft 395 kts 284°
2026-05-01 13:46 27.14812 41.68883 34866 ft 394 kts 284°
2026-05-01 13:46 27.15707 41.66018 35016 ft 393 kts 284°
2026-05-01 13:47 27.16613 41.63116 35188 ft 393 kts 284°
2026-05-01 13:47 27.17515 41.60220 35358 ft 392 kts 284°
2026-05-01 13:47 27.18413 41.57334 35529 ft 392 kts 284°
2026-05-01 13:47 27.19309 41.54447 35713 ft 391 kts 284°
2026-05-01 13:48 27.20202 41.51566 35896 ft 390 kts 283°
2026-05-01 13:48 27.21977 41.45825 35947 ft 388 kts 283°
2026-05-01 13:49 27.23746 41.40091 35942 ft 388 kts 283°
2026-05-01 13:49 27.25513 41.34361 35953 ft 388 kts 284°
2026-05-01 13:50 27.27281 41.28617 35940 ft 389 kts 284°
2026-05-01 13:50 27.29046 41.22865 35939 ft 389 kts 284°
2026-05-01 13:51 27.30812 41.17107 35940 ft 389 kts 284°
2026-05-01 13:51 27.32578 41.11344 35950 ft 389 kts 284°
2026-05-01 13:52 27.34335 41.05614 35934 ft 390 kts 284°
2026-05-01 13:52 27.36099 40.99849 35929 ft 390 kts 284°
2026-05-01 13:53 27.37862 40.94076 35929 ft 390 kts 284°
2026-05-01 13:53 27.40497 40.85406 35937 ft 390 kts 284°
2026-05-01 13:54 27.42245 40.79628 35937 ft 390 kts 284°
2026-05-01 13:54 27.43996 40.73842 35928 ft 390 kts 284°
2026-05-01 13:55 27.45746 40.68061 35929 ft 390 kts 284°
2026-05-01 13:55 27.47485 40.62311 35925 ft 390 kts 284°
2026-05-01 13:56 27.49228 40.56525 35921 ft 390 kts 284°
2026-05-01 13:56 27.50969 40.50734 35924 ft 390 kts 284°
2026-05-01 13:57 27.52712 40.44945 35934 ft 390 kts 284°
2026-05-01 13:57 27.54453 40.39151 35926 ft 391 kts 284°
2026-05-01 13:58 27.56191 40.33341 35927 ft 391 kts 284°
2026-05-01 13:58 27.57931 40.27532 35926 ft 391 kts 284°
2026-05-01 13:59 27.59672 40.21719 35930 ft 392 kts 284°
2026-05-01 13:59 27.61393 40.15932 35929 ft 392 kts 284°
2026-05-01 14:00 27.63129 40.10098 35931 ft 392 kts 284°
2026-05-01 14:00 27.64866 40.04256 35933 ft 393 kts 284°
2026-05-01 14:01 27.66594 39.98413 35948 ft 393 kts 284°
2026-05-01 14:01 27.68316 39.92577 35948 ft 392 kts 284°
2026-05-01 14:02 27.70043 39.86735 35947 ft 392 kts 284°
2026-05-01 14:02 27.71770 39.80891 35946 ft 392 kts 284°
2026-05-01 14:03 27.73501 39.75044 35943 ft 393 kts 284°
2026-05-01 14:03 27.75222 39.69191 35938 ft 393 kts 284°
2026-05-01 14:04 27.76922 39.63371 35943 ft 393 kts 283°
2026-05-01 14:04 27.78354 39.58457 35938 ft 393 kts 284°
2026-05-01 14:05 27.80356 39.51627 35925 ft 395 kts 283°
2026-05-01 14:05 27.82080 39.45739 35919 ft 395 kts 283°
2026-05-01 14:06 27.83799 39.39836 35917 ft 396 kts 283°
2026-05-01 14:06 27.85513 39.33924 35924 ft 396 kts 283°
2026-05-01 14:07 27.87231 39.28008 35933 ft 396 kts 283°
2026-05-01 14:08 27.89811 39.19131 35929 ft 396 kts 283°
2026-05-01 14:08 27.91516 39.13221 35922 ft 396 kts 283°
2026-05-01 14:09 27.93210 39.07344 35943 ft 395 kts 284°
2026-05-01 14:09 27.94917 39.01429 35920 ft 395 kts 284°
2026-05-01 14:10 27.96619 38.95514 35915 ft 395 kts 284°
2026-05-01 14:10 27.98316 38.89607 35909 ft 395 kts 284°
2026-05-01 14:11 28.00010 38.83691 35922 ft 395 kts 284°
2026-05-01 14:11 28.02540 38.74824 35912 ft 395 kts 283°
2026-05-01 14:12 28.04224 38.68907 35910 ft 395 kts 284°
2026-05-01 14:12 28.05909 38.62985 35899 ft 395 kts 284°
2026-05-01 14:13 28.07306 38.58066 35889 ft 395 kts 284°
2026-05-01 14:13 28.09402 38.51167 35885 ft 399 kts 289°
2026-05-01 14:14 28.11693 38.45431 35882 ft 400 kts 290°
2026-05-01 14:14 28.14049 38.39705 35884 ft 401 kts 290°
2026-05-01 14:15 28.16414 38.34018 35892 ft 402 kts 291°
2026-05-01 14:15 28.18862 38.28321 35906 ft 402 kts 291°
2026-05-01 14:16 28.21312 38.22618 35906 ft 402 kts 291°
2026-05-01 14:16 28.23748 38.16899 35927 ft 402 kts 291°
2026-05-01 14:17 28.26172 38.11183 35922 ft 402 kts 291°
2026-05-01 14:17 28.28591 38.05468 35925 ft 402 kts 291°
2026-05-01 14:18 28.31012 37.99747 35928 ft 402 kts 291°
2026-05-01 14:18 28.33022 37.94991 35940 ft 402 kts 291°
2026-05-01 14:19 28.35826 37.88329 35940 ft 402 kts 291°
2026-05-01 14:19 28.38236 37.82598 35940 ft 402 kts 291°
2026-05-01 14:20 28.41849 37.74013 35935 ft 402 kts 291°
2026-05-01 14:21 28.44254 37.68281 35943 ft 402 kts 291°
2026-05-01 14:21 28.46655 37.62549 35938 ft 402 kts 291°
2026-05-01 14:22 28.50240 37.53978 35936 ft 402 kts 291°
2026-05-01 14:22 28.52637 37.48227 35937 ft 402 kts 291°
2026-05-01 14:23 28.55037 37.42480 35944 ft 402 kts 291°
2026-05-01 14:23 28.57430 37.36735 35942 ft 402 kts 291°
2026-05-01 14:24 28.59813 37.30989 35942 ft 402 kts 291°
2026-05-01 14:24 28.62201 37.25237 35942 ft 402 kts 291°
2026-05-01 14:25 28.64189 37.20456 35950 ft 402 kts 291°
2026-05-01 14:25 28.66957 37.13758 35941 ft 403 kts 291°
2026-05-01 14:26 28.70531 37.05100 35939 ft 402 kts 291°
2026-05-01 14:27 28.72513 37.00299 35927 ft 402 kts 291°
2026-05-01 14:27 28.74893 36.94527 35934 ft 403 kts 292°
2026-05-01 14:28 28.78455 36.85857 35929 ft 402 kts 291°
2026-05-01 14:28 28.80821 36.80075 35936 ft 402 kts 292°
2026-05-01 14:29 28.83189 36.74294 35937 ft 402 kts 292°
2026-05-01 14:30 28.87924 36.62722 35921 ft 402 kts 292°
2026-05-01 14:31 28.91452 36.54079 35921 ft 402 kts 292°
2026-05-01 14:31 28.93806 36.48291 35917 ft 402 kts 292°
2026-05-01 14:32 28.96158 36.42495 35916 ft 402 kts 292°
2026-05-01 14:32 28.98508 36.36694 35910 ft 402 kts 292°
2026-05-01 14:33 29.00857 36.30891 35914 ft 403 kts 292°
2026-05-01 14:33 29.03212 36.25077 35921 ft 403 kts 292°
2026-05-01 14:34 29.05563 36.19253 35912 ft 404 kts 292°
2026-05-01 14:34 29.07914 36.13426 35912 ft 404 kts 292°
2026-05-01 14:35 29.10268 36.07585 35908 ft 404 kts 292°
2026-05-01 14:35 29.12615 36.01744 35914 ft 404 kts 292°
2026-05-01 14:36 29.14967 35.95895 35910 ft 404 kts 292°
2026-05-01 14:36 29.17294 35.90088 35919 ft 404 kts 292°
2026-05-01 14:37 29.19631 35.84243 35926 ft 404 kts 292°
2026-05-01 14:37 29.21962 35.78393 35926 ft 404 kts 292°
2026-05-01 14:38 29.24292 35.72543 35951 ft 404 kts 292°
2026-05-01 14:38 29.26627 35.66701 35949 ft 403 kts 292°
2026-05-01 14:39 29.28949 35.60867 35956 ft 402 kts 292°
2026-05-01 14:39 29.31260 35.55038 35960 ft 402 kts 292°
2026-05-01 14:40 29.33566 35.49207 35967 ft 402 kts 292°
2026-05-01 14:40 29.35874 35.43383 35958 ft 401 kts 292°
2026-05-01 14:41 29.38178 35.37559 35958 ft 401 kts 292°
2026-05-01 14:41 29.40478 35.31740 35941 ft 400 kts 292°
2026-05-01 14:42 29.42751 35.25961 35943 ft 400 kts 292°
2026-05-01 14:42 29.45040 35.20137 35915 ft 400 kts 293°
2026-05-01 14:43 29.47327 35.14309 35905 ft 400 kts 293°
2026-05-01 14:43 29.49612 35.08486 35905 ft 401 kts 293°
2026-05-01 14:44 29.51897 35.02649 35893 ft 401 kts 292°
2026-05-01 14:44 29.55320 34.93889 35902 ft 400 kts 293°
2026-05-01 14:45 29.58722 34.85176 35902 ft 400 kts 293°
2026-05-01 14:46 29.60994 34.79338 35906 ft 400 kts 293°
2026-05-01 14:46 29.64395 34.70579 35931 ft 400 kts 293°
2026-05-01 14:47 29.66652 34.64754 35939 ft 398 kts 293°
2026-05-01 14:48 29.70022 34.56029 35945 ft 397 kts 293°
2026-05-01 14:48 29.73373 34.47320 35957 ft 397 kts 293°
2026-05-01 14:49 29.77837 34.35732 35952 ft 395 kts 293°
2026-05-01 14:50 29.82271 34.24192 35964 ft 395 kts 293°
2026-05-01 14:51 29.85598 34.15500 35968 ft 395 kts 293°
2026-05-01 14:52 29.88906 34.06819 35962 ft 393 kts 293°
2026-05-01 14:53 29.92201 33.98168 35951 ft 393 kts 293°
2026-05-01 14:53 29.94392 33.92407 35954 ft 392 kts 293°
2026-05-01 14:54 29.96579 33.86650 35959 ft 391 kts 293°
2026-05-01 14:54 29.98756 33.80901 35956 ft 391 kts 293°
2026-05-01 14:55 30.00927 33.75153 35954 ft 391 kts 293°
2026-05-01 14:55 30.03090 33.69407 35953 ft 390 kts 293°
2026-05-01 14:56 30.05242 33.63697 35958 ft 390 kts 293°
2026-05-01 14:56 30.07410 33.57957 35957 ft 390 kts 293°
2026-05-01 14:57 30.09568 33.52214 35955 ft 390 kts 293°
2026-05-01 14:57 30.12798 33.43601 35960 ft 389 kts 293°
2026-05-01 14:58 30.14947 33.37854 35959 ft 389 kts 293°
2026-05-01 14:58 30.17095 33.32106 35967 ft 389 kts 293°
2026-05-01 14:59 30.19235 33.26361 35968 ft 389 kts 293°
2026-05-01 14:59 30.21377 33.20611 35968 ft 389 kts 293°
2026-05-01 15:00 30.24589 33.11989 35985 ft 389 kts 293°
2026-05-01 15:01 30.26701 33.06290 35983 ft 388 kts 293°
2026-05-01 15:01 30.28819 33.00562 35979 ft 387 kts 293°
2026-05-01 15:02 30.30937 32.94838 35976 ft 387 kts 293°
2026-05-01 15:02 30.33053 32.89119 35975 ft 386 kts 293°
2026-05-01 15:03 30.35163 32.83402 35972 ft 386 kts 293°
2026-05-01 15:03 30.37265 32.77680 35972 ft 386 kts 293°
2026-05-01 15:04 30.39361 32.71961 35971 ft 386 kts 293°
2026-05-01 15:04 30.41462 32.66237 35975 ft 386 kts 293°
2026-05-01 15:05 30.43565 32.60512 35980 ft 386 kts 293°
2026-05-01 15:05 30.45652 32.54796 35985 ft 385 kts 293°
2026-05-01 15:06 30.47733 32.49081 35989 ft 385 kts 293°
2026-05-01 15:06 30.49803 32.43401 35990 ft 384 kts 293°
2026-05-01 15:07 30.51885 32.37691 35990 ft 384 kts 293°
2026-05-01 15:07 30.53957 32.31980 35996 ft 384 kts 293°
2026-05-01 15:08 30.56026 32.26273 35995 ft 383 kts 293°
2026-05-01 15:08 30.58095 32.20581 35992 ft 382 kts 293°
2026-05-01 15:09 30.60150 32.14892 35990 ft 382 kts 293°
2026-05-01 15:09 30.62201 32.09200 35990 ft 382 kts 293°
2026-05-01 15:10 30.64233 32.03552 35984 ft 381 kts 293°
2026-05-01 15:10 30.67292 31.95041 35985 ft 380 kts 293°
2026-05-01 15:11 30.70344 31.86540 35984 ft 380 kts 293°
2026-05-01 15:12 30.72374 31.80877 35974 ft 379 kts 293°
2026-05-01 15:12 30.75407 31.72392 35978 ft 378 kts 293°
2026-05-01 15:14 30.80426 31.58304 35973 ft 376 kts 293°
2026-05-01 15:14 30.83406 31.49890 35996 ft 376 kts 293°
2026-05-01 15:15 30.87375 31.38676 35977 ft 374 kts 293°
2026-05-01 15:16 30.91318 31.27493 35970 ft 373 kts 293°
2026-05-01 15:18 30.95898 31.14473 35972 ft 371 kts 293°
2026-05-01 15:19 31.00122 31.02443 35972 ft 371 kts 293°
2026-05-01 15:19 31.02701 30.95034 35979 ft 370 kts 292°
2026-05-01 15:20 31.05605 30.86702 35985 ft 369 kts 293°
2026-05-01 15:21 31.07535 30.81162 35984 ft 368 kts 292°
2026-05-01 15:21 31.09456 30.75626 35983 ft 368 kts 292°
2026-05-01 15:22 31.12331 30.67326 35981 ft 367 kts 292°
2026-05-01 15:22 31.14239 30.61793 35978 ft 367 kts 292°
2026-05-01 15:23 31.16148 30.56260 35976 ft 367 kts 292°
2026-05-01 15:23 31.18045 30.50762 35981 ft 367 kts 292°
2026-05-01 15:24 31.19954 30.45220 36078 ft 368 kts 292°
2026-05-01 15:24 31.20907 30.42445 36248 ft 368 kts 292°
2026-05-01 15:24 31.21859 30.39670 36414 ft 368 kts 292°
2026-05-01 15:25 31.22808 30.36896 36615 ft 367 kts 292°
2026-05-01 15:25 31.23755 30.34133 36799 ft 366 kts 292°
2026-05-01 15:25 31.24701 30.31374 36959 ft 366 kts 292°
2026-05-01 15:25 31.25646 30.28617 37109 ft 365 kts 292°
2026-05-01 15:26 31.26592 30.25860 37253 ft 365 kts 292°
2026-05-01 15:26 31.27534 30.23104 37395 ft 365 kts 292°
2026-05-01 15:26 31.28472 30.20348 37526 ft 365 kts 292°
2026-05-01 15:26 31.29412 30.17587 37662 ft 365 kts 292°
2026-05-01 15:27 31.30337 30.14871 37795 ft 365 kts 292°
2026-05-01 15:27 31.31285 30.12086 37948 ft 364 kts 292°
2026-05-01 15:28 31.34080 30.03864 37966 ft 364 kts 292°
2026-05-01 15:28 31.35944 29.98367 37972 ft 364 kts 291°
2026-05-01 15:29 31.38737 29.90104 37971 ft 364 kts 291°
2026-05-01 15:30 31.42467 29.79079 37999 ft 364 kts 291°
2026-05-01 15:31 31.47996 29.62616 37994 ft 362 kts 291°
2026-05-01 15:32 31.51681 29.51627 37995 ft 362 kts 291°
2026-05-01 15:34 31.57155 29.35192 37994 ft 360 kts 291°